Regional Weather Roundup
Issued by NWS

Home | Current Version | Previous Version | Text Only | Print | Product List | Glossary Off
Versions: 1 2 3 4 5 6 7 8 9 10 11 12 13 14 15 16 17 18 19 20 21 22 23 24 25 26 27 28 29 30 31 32 33 34 35 36 37 38 39 40 41 42 43 44 45 46 47 48 49 50

000
ASUS45 KABQ 310801
RWRNM
WEATHER ROUNDUP FOR NEW MEXICO
NATIONAL WEATHER SERVICE ALBUQUERQUE NM
200 AM MDT THU JUL 31 2014

NOTE: "FAIR" MEANS FEW OR NO CLOUDS BELOW 12,000 FEET AGL WITH NO
       SIGNIFICANT WEATHER OR OBSTRUCTIONS TO VISION.

      THIS PRODUCT IS RELEASED AS TWO VERSIONS.  ONE VERSION NEAR
      THE TOP OF THE HOUR CONTAINING PRELIMINARY DATA FROM ALBUQUERQUE
      AND OTHER STATIONS.  A FINAL VERSION WITH ADDITIONAL DATA IS
      ISSUED ABOUT 10 MINUTES AFTER THE HOUR.

NMZ501-503-504-510>518-310900-
NORTHWEST PLATEAU/NORTHCENTRAL MOUNTAINS

CITY           SKY/WX    TMP DP  RH WIND       PRES   REMARKS
FARMINGTON     CLEAR     66  48  52 N7        30.15S
LOS ALAMOS     CLOUDY    58  57  96 SW9G20    30.40R
SANTA FE       CLOUDY    61  55  81 S15       30.33S
TAOS           CLOUDY    61  54  77 E5        30.37S
ANGEL FIRE     LGT RAIN  55  51  87 E3        30.48R

$$
NMZ402-403-502-505>509-310900-
WESTCENTRAL MOUNTAINS/SOUTHWEST MOUNTAINS

CITY           SKY/WX    TMP DP  RH WIND       PRES   REMARKS
GALLUP         PTCLDY    65  52  62 E8        30.24F

$$
NMZ407-409-411-412-310900-
SOUTHERN DESERTS

CITY           SKY/WX    TMP DP  RH WIND       PRES   REMARKS
LORDSBURG      PTSUNNY   72  50  46 S5        30.11S
DEMING         CLOUDY    72  62  71 NE6       30.13F
LAS CRUCES     CLOUDY    77  57  50 SE7       30.16S
HOLLOMAN AFB   TSTM      70  64  83 SE10      30.18S
T OR C         LGT RAIN  71  61  70 CALM      30.22R

$$
NMZ519>523-310900-
CENTRAL VALLEYS/CENTRAL HIGHLANDS

CITY           SKY/WX    TMP DP  RH WIND       PRES   REMARKS
ALBUQUERQUE    CLOUDY    67  58  72 E16       30.28R
CLINES CORNERS CLOUDY    56  54  93 E13       30.38F
BELEN          LGT RAIN  65  62  89 S12       30.26R
SOCORRO        CLOUDY    69  60  73 SE12      30.24F

$$
NMZ524>526-539-540-310900-
SOUTHCENTRAL MOUNTAINS

CITY           SKY/WX    TMP DP  RH WIND       PRES   REMARKS
RUIDOSO        NOT AVBL

$$
NMZ527>531-310900-
NORTHEAST HIGHLANDS/NORTHEAST PLAINS

CITY           SKY/WX    TMP DP  RH WIND       PRES   REMARKS
LAS VEGAS      CLOUDY    55  54  96 E8        30.41S FOG
RATON          LGT RAIN  57  55  93 E3        30.36F
CLAYTON        CLOUDY    59  56  89 NE6       30.30F

$$
NMZ532>537-310900-
EASTCENTRAL PLAINS

CITY           SKY/WX    TMP DP  RH WIND       PRES   REMARKS
TUCUMCARI      CLOUDY    64  56  75 E8        30.25F
CANNON AFB     CLOUDY    63  61  94 NE14      30.25F
CLOVIS AIRPORT NOT AVBL

$$
NMZ028-029-538-310900-
SOUTHEAST PLAINS

CITY           SKY/WX    TMP DP  RH WIND       PRES   REMARKS
ROSWELL        CLOUDY    71  60  68 N9        30.20F
ARTESIA        RAIN      66  63  88 N8        30.20S
CARLSBAD       CLOUDY    70  63  78 N15       30.16R
HOBBS          MOCLDY    68  59  73 N24G30    30.16F


$$


USA.gov is the U.S. government's official web portal to all federal, state and local government web resources and services.